Weather in Pekshiksola

Russia / Mari El Republic     56°40′36″N   47°43′14″E
temp.,
°C
wind,
m/s
gust,
m/s
humid.,
%
clouds,
%
prec.,
mm/h
press.,
hPa
HPBL,
m
2 march, tue
tue200:00−4sw61395100 1.4 1008713
03:00−2sw61395100 4.1 1003741
06:00−1sw51298100 1.6 999581
09:000w61198100 2.9 997746
12:000w51098100 1.1 996797
15:00+1w51090100 1.9 996906
18:00−1wnw51293100 0.2 997748
21:00−3wnw6139099 0.4 999679
3 march, wed
wed300:00−5wnw3109487 0.1 999301
03:00−5wnw4109592 0.3 1000431
06:00−6wnw51094100 0.4 1000517
09:00−5nw51093100 0.7 1001642
12:00−5nw61088100 0.3 1002696
15:00−5nw5987100 0.4 1004756
18:00−6wnw41090100 0.1 1005864
21:00−8w3992100 0.1 1006307
4 march, thu
thu400:00−9wsw379691 0.1 1004197
03:00−7wsw399595 0.4 1004350
06:00−7wsw399699 0.1 1002316
09:00−5sw5109499 0.3 1001487
12:00−2sw61295100 0.6 997829
15:00−1sw61293100 1.0 994884
18:000sw61296100 1.4 9911040
21:00−1wsw71394100 2.8 9911023
5 march, fri
fri500:00−2w61384100 0.4 991963
03:00−7w6139079 0.5 994723
06:00−8w51292100 0.1 998613
09:00−9wnw5991100 0.1 1001512
12:00−8wnw478894 0.0 1004534
15:00−7wnw478779 0.0 1007591
18:00−12nw229466 0.0 100821
21:00−15nw119535 0.0 101020
6 march, sat
sat600:00−16e119570 0.0 101020
03:00−15e229585 0.0 101022
06:00−16ene2294100 0.0 100825
09:00−13ne2391100 0.0 1007152
12:00−9n248762 0.0 1006378
15:00−8nnw248744 0.0 1006491
18:00−12wnw229697 0.0 100621
21:00−11wsw239796 0.1 100764